Regional Weather Roundup
Issued by NWS Green Bay, WI

Home | Current Version | Previous Version | Graphics & Text | Print | Product List | Glossary Off
Versions: 1 2 3 4 5 6 7 8 9 10 11 12 13 14 15 16 17 18 19 20 21 22 23 24 25 26 27 28 29 30 31 32 33 34 35 36 37 38 39 40 41 42 43 44 45 46 47 48 49 50

000
ASUS43 KGRB 222111
RWRGRB

NORTH-CENTRAL AND NORTHEAST WISCONSIN REGIONAL WEATHER ROUNDUP
NATIONAL WEATHER SERVICE GREEN BAY WI
400 PM CDT FRI JUL 22 2016

WIZ005-009-010>012-018-019-222200-
NORTH CENTRAL WISCONSIN

CITY           SKY/WX    TMP DP  RH WIND       PRES   REMARKS
IRONWOOD       SUNNY     88  63  42 W13       29.95F
MANITOWISH WTR SUNNY     88  57  35 NW12      30.01S
ARBOR VITAE    SUNNY     91  60  36 NW9       30.01F HX  90
EAGLE RIVER    SUNNY     89  53  29 NW13      30.01S
LAND O LAKES   SUNNY     89  49  25 NW8G17    30.02R
RHINELANDER    SUNNY     90  62  39 W10       30.02F HX  90
PHILLIPS       SUNNY     87  64  45 W3        30.01F
ANTIGO         SUNNY     88  64  44 CALM      30.01F
TOMAHAWK       SUNNY     88  60  38 N8        30.01F
MERRILL        SUNNY     90  64  42 NW6       30.00F HX  91
$$

WIZ013-073-222200-
NORTHEAST WISCONSIN

CITY           SKY/WX    TMP DP  RH WIND       PRES   REMARKS
IRON MOUNTAIN  SUNNY     94  54  25 NW8       29.95F HX  92
MARINETTE      SUNNY     89  72  56 SW13      29.94F HX  96
OCONTO         SUNNY     90  67  47 SW5       29.94S HX  93
$$

WIZ017-030-035>037-045-222200-
CENTRAL WISCONSIN

CITY           SKY/WX    TMP DP  RH WIND       PRES   REMARKS
MEDFORD        SUNNY     87  64  44 N5        30.01F
WAUSAU         SUNNY     90  60  36 W8        29.98F
MOSINEE        SUNNY     90  61  37 SW6       30.01F
MARSHFIELD     SUNNY     90  64  42 W6        30.00F HX  91
WISC RAPIDS    SUNNY     92  60  34 NW8       30.00F HX  91
STEVENS POINT  SUNNY     88  64  45 W5        30.00F
WAUPACA        SUNNY     94  60  31 W7        29.98S HX  94
SHAWANO        SUNNY     93  62  35 W7        29.96F HX  93
CLINTONVILLE   SUNNY     91  52  25 W6        29.97F
WAUTOMA        SUNNY     92  69  47 W8        29.98F HX  97
$$

WIZ038-039-048-051-222200-
FOX VALLEY

CITY           SKY/WX    TMP DP  RH WIND       PRES   REMARKS
NWS GREEN BAY  SUNNY     89  71  55 W6        29.96F HX  95
APPLETON       MOSUNNY   90  63  40 W8        29.97F HX  90
OSHKOSH        SUNNY     89  72  56 SW7       29.97F HX  96
FOND DU LAC    SUNNY     91  69  48 W7        29.98F HX  96
$$

WIZ022-050-052-222200-
EAST CENTRAL WISCONSIN

CITY           SKY/WX    TMP DP  RH WIND       PRES   REMARKS
EPHRAIM        FAIR      87  67  51 SW6       29.94F HX  90
WASHINGTON ISL NOT AVBL
STURGEON BAY   SUNNY     90  67  46 SW9       29.96F HX  93
MANITOWOC      SUNNY     84  67  56 SE8       29.97F
SHEBOYGAN      SUNNY     91  64  40 NW8       29.97F HX  92
$$

LMZ563-521-522-541>543-222200-
LAKESHORE

STATION/POSITION TIME  TEMP    WIND        PRES    VSBY  WAVE
                       AIR SEA DIR/SP/G                  HT/PER
                 (UTC) (F)     (DEG/KT/KT) (MB)    (MI)  (FT/S)
SHEBOYGAN LKSHOR 2100   76     160/ 13/ 14 1014.9F
KEWAUNEE LKSHORE 2000   69     180/ 10/ 11 1014.8F
NORTHPORT PIER   2000          140/  6/ 17 1013.5F
N MID LAKE BUOY  2050   72 69  200/ 12/ 14 1012.8F         1/ 5
S GREEN BAY BUOY 2000   80 76  180/  6/  8   N/A
CHAMBERS ISLAND  2000   83     180/  6/ 11 1013.9F
MENOMINEE LKSHOR 2000   84     160/  7/ 11 1013.0F
$$




USA.gov is the U.S. government's official web portal to all federal, state and local government web resources and services.